Location: Austin
(30.3000°N, 97.7500°W)
Time: 04:07:48
(UTC-06:00)

Atlas Centaur 2 - Pass Details

Date: 20 November 2023
Orbit: 458 x 1286 km, 30.4° (Epoch: 04 December)

Event Time Altitude Azimuth Distance (km) Brightness Sun altitude
Rises 18:18:37 0° 280° (W) 4,246 7.1 -10.2°
Reaches altitude 10° 18:21:49 10° 274° (W) 3,246 6.5 -10.9°
Maximum altitude 18:29:25 42° 207° (SSW) 1,611 4.0 -12.5°
Drops below altitude 10° 18:36:03 10° 139° (SE) 2,834 4.7 -13.9°
Sets 18:38:41 0° 132° (SE) 3,664 5.2 -14.4°
